Year,Month,Day,Hour,Minute,Value (Times are PST for temperature in C)
2012,08,16,00,00,17.90
2012,08,16,00,01,18.00
2012,08,16,00,02,18.10
2012,08,16,00,03,18.10
2012,08,16,00,04,18.10
2012,08,16,00,05,18.10
2012,08,16,00,06,18.10
2012,08,16,00,07,18.20
2012,08,16,00,08,18.20
2012,08,16,00,09,18.20
2012,08,16,00,10,18.20
2012,08,16,00,11,18.20
2012,08,16,00,12,18.20
2012,08,16,00,13,18.30
2012,08,16,00,14,18.30
2012,08,16,00,15,18.30
2012,08,16,00,16,18.30
2012,08,16,00,17,18.30
2012,08,16,00,18,18.30
2012,08,16,00,19,18.30
2012,08,16,00,20,18.30
2012,08,16,00,21,18.30
2012,08,16,00,22,18.30
2012,08,16,00,23,18.30
2012,08,16,00,24,18.20
2012,08,16,00,25,18.20
2012,08,16,00,26,18.20
2012,08,16,00,27,18.20
2012,08,16,00,28,18.10
2012,08,16,00,29,18.00
2012,08,16,00,30,17.90
2012,08,16,00,31,17.80
2012,08,16,00,32,17.70
2012,08,16,00,33,17.60
2012,08,16,00,34,17.50
2012,08,16,00,35,17.40
2012,08,16,00,36,17.30
2012,08,16,00,37,17.30
2012,08,16,00,38,17.30
2012,08,16,00,39,17.20
2012,08,16,00,40,17.20
2012,08,16,00,41,17.20
2012,08,16,00,42,17.10
2012,08,16,00,43,17.10
2012,08,16,00,44,17.10
2012,08,16,00,45,17.10
2012,08,16,00,46,17.00
2012,08,16,00,47,17.00
2012,08,16,00,48,17.00
2012,08,16,00,49,16.90
2012,08,16,00,50,16.90
2012,08,16,00,51,16.90
2012,08,16,00,52,16.90
2012,08,16,00,53,16.90
2012,08,16,00,54,16.90
2012,08,16,00,55,16.90
2012,08,16,00,56,16.90
2012,08,16,00,57,16.90
2012,08,16,00,58,16.80
2012,08,16,00,59,16.80
2012,08,16,01,00,16.80
2012,08,16,01,01,16.80
2012,08,16,01,02,16.70
2012,08,16,01,03,16.70
2012,08,16,01,04,16.70
2012,08,16,01,05,16.70
2012,08,16,01,06,16.70
2012,08,16,01,07,16.60
2012,08,16,01,08,16.60
2012,08,16,01,09,16.50
2012,08,16,01,10,16.40
2012,08,16,01,11,16.40
2012,08,16,01,12,16.40
2012,08,16,01,13,16.40
2012,08,16,01,14,16.40
2012,08,16,01,15,16.30
2012,08,16,01,16,16.30
2012,08,16,01,17,16.30
2012,08,16,01,18,16.20
2012,08,16,01,19,16.20
2012,08,16,01,20,16.10
2012,08,16,01,21,16.10
2012,08,16,01,22,16.10
2012,08,16,01,23,16.10
2012,08,16,01,24,16.10
2012,08,16,01,25,16.10
2012,08,16,01,26,16.10
2012,08,16,01,27,16.10
2012,08,16,01,28,16.10
2012,08,16,01,29,16.10
2012,08,16,01,30,16.10
2012,08,16,01,31,16.20
2012,08,16,01,32,16.20
2012,08,16,01,33,16.20
2012,08,16,01,34,16.20
2012,08,16,01,35,16.20
2012,08,16,01,36,16.20
2012,08,16,01,37,16.30
2012,08,16,01,38,16.30
2012,08,16,01,39,16.30
2012,08,16,01,40,16.30
2012,08,16,01,41,16.40
2012,08,16,01,42,16.40
2012,08,16,01,43,16.40
2012,08,16,01,44,16.50
2012,08,16,01,45,16.60
2012,08,16,01,46,16.60
2012,08,16,01,47,16.60
2012,08,16,01,48,16.60
2012,08,16,01,49,16.60
2012,08,16,01,50,16.60
2012,08,16,01,51,16.60
2012,08,16,01,52,16.60
2012,08,16,01,53,16.70
2012,08,16,01,54,16.70
2012,08,16,01,55,16.70
2012,08,16,01,56,16.70
2012,08,16,01,57,16.80
2012,08,16,01,58,16.80
2012,08,16,01,59,16.80
2012,08,16,02,00,16.90
2012,08,16,02,01,16.90
2012,08,16,02,02,16.90
2012,08,16,02,03,17.00
2012,08,16,02,04,17.00
2012,08,16,02,05,17.00
2012,08,16,02,06,17.00
2012,08,16,02,07,17.00
2012,08,16,02,08,16.90
2012,08,16,02,09,16.90
2012,08,16,02,10,16.90
2012,08,16,02,11,16.90
2012,08,16,02,12,16.90
2012,08,16,02,13,16.90
2012,08,16,02,14,16.90
2012,08,16,02,15,16.80
2012,08,16,02,16,16.80
2012,08,16,02,17,16.90
2012,08,16,02,18,16.90
2012,08,16,02,19,16.90
2012,08,16,02,20,16.90
2012,08,16,02,21,17.00
2012,08,16,02,22,17.00
2012,08,16,02,23,17.10
2012,08,16,02,24,17.10
2012,08,16,02,25,17.10
2012,08,16,02,26,17.10
2012,08,16,02,27,17.10
2012,08,16,02,28,17.10
2012,08,16,02,29,17.10
2012,08,16,02,30,17.10
2012,08,16,02,31,17.10
2012,08,16,02,32,17.10
2012,08,16,02,33,17.10
2012,08,16,02,34,17.10
2012,08,16,02,35,17.10
2012,08,16,02,36,17.10
2012,08,16,02,37,17.10
2012,08,16,02,38,17.10
2012,08,16,02,39,17.10
2012,08,16,02,40,17.00
2012,08,16,02,41,17.00
2012,08,16,02,42,17.00
2012,08,16,02,43,17.00
2012,08,16,02,44,17.00
2012,08,16,02,45,17.00
2012,08,16,02,46,17.00
2012,08,16,02,47,17.00
2012,08,16,02,48,16.90
2012,08,16,02,49,16.90
2012,08,16,02,50,16.90
2012,08,16,02,51,16.90
2012,08,16,02,52,16.90
2012,08,16,02,53,16.90
2012,08,16,02,54,17.00
2012,08,16,02,55,17.00
2012,08,16,02,56,17.00
2012,08,16,02,57,17.00
2012,08,16,02,58,17.00
2012,08,16,02,59,17.00
2012,08,16,03,00,17.00
2012,08,16,03,01,17.00
2012,08,16,03,02,17.00
2012,08,16,03,03,17.00
2012,08,16,03,04,17.00
2012,08,16,03,05,17.10
2012,08,16,03,06,17.10
2012,08,16,03,07,17.20
2012,08,16,03,08,17.20
2012,08,16,03,09,17.20
2012,08,16,03,10,17.30
2012,08,16,03,11,17.30
2012,08,16,03,12,17.30
2012,08,16,03,13,17.30
2012,08,16,03,14,17.30
2012,08,16,03,15,17.30
2012,08,16,03,16,17.30
2012,08,16,03,17,17.30
2012,08,16,03,18,17.20
2012,08,16,03,19,17.20
2012,08,16,03,20,17.20
2012,08,16,03,21,17.10
2012,08,16,03,22,17.10
2012,08,16,03,23,17.00
2012,08,16,03,24,17.00
2012,08,16,03,25,17.00
2012,08,16,03,26,17.00
2012,08,16,03,27,16.90
2012,08,16,03,28,16.90
2012,08,16,03,29,16.90
2012,08,16,03,30,16.90
2012,08,16,03,31,16.80
2012,08,16,03,32,16.80
2012,08,16,03,33,16.80
2012,08,16,03,34,16.80
2012,08,16,03,35,16.80
2012,08,16,03,36,16.80
2012,08,16,03,37,16.80
2012,08,16,03,38,16.80
2012,08,16,03,39,16.80
2012,08,16,03,40,16.80
2012,08,16,03,41,16.80
2012,08,16,03,42,16.90
2012,08,16,03,43,16.90
2012,08,16,03,44,16.90
2012,08,16,03,45,16.90
2012,08,16,03,46,16.90
2012,08,16,03,47,16.80
2012,08,16,03,48,16.80
2012,08,16,03,49,16.80
2012,08,16,03,50,16.80
2012,08,16,03,51,16.80
2012,08,16,03,52,16.80
2012,08,16,03,53,16.80
2012,08,16,03,54,16.80
2012,08,16,03,55,16.80
2012,08,16,03,56,16.80
2012,08,16,03,57,16.80
2012,08,16,03,58,16.70
2012,08,16,03,59,16.70
2012,08,16,04,00,16.70
2012,08,16,04,01,16.70
2012,08,16,04,02,16.70
2012,08,16,04,03,16.70
2012,08,16,04,04,16.70
2012,08,16,04,05,16.70
2012,08,16,04,06,16.70
2012,08,16,04,07,16.70
2012,08,16,04,08,16.70
2012,08,16,04,09,16.70
2012,08,16,04,10,16.70
2012,08,16,04,11,16.70
2012,08,16,04,12,16.80
2012,08,16,04,13,16.80
2012,08,16,04,14,16.70
2012,08,16,04,15,16.70
2012,08,16,04,16,16.70
2012,08,16,04,17,16.70
2012,08,16,04,18,16.70
2012,08,16,04,19,16.70
2012,08,16,04,20,16.70
2012,08,16,04,21,16.70
2012,08,16,04,22,16.70
2012,08,16,04,23,16.70
2012,08,16,04,24,16.70
2012,08,16,04,25,16.60
2012,08,16,04,26,16.60
2012,08,16,04,27,16.50
2012,08,16,04,28,16.40
2012,08,16,04,29,16.40
2012,08,16,04,30,16.40
2012,08,16,04,31,16.40
2012,08,16,04,32,16.40
2012,08,16,04,33,16.40
2012,08,16,04,34,16.30
2012,08,16,04,35,16.30
2012,08,16,04,36,16.30
2012,08,16,04,37,16.20
2012,08,16,04,38,16.20
2012,08,16,04,39,16.20
2012,08,16,04,40,16.20
2012,08,16,04,41,16.20
2012,08,16,04,42,16.10
2012,08,16,04,43,16.10
2012,08,16,04,44,16.10
2012,08,16,04,45,16.10
2012,08,16,04,46,16.10
2012,08,16,04,47,16.10
2012,08,16,04,48,16.00
2012,08,16,04,49,15.90
2012,08,16,04,50,15.90
2012,08,16,04,51,15.90
2012,08,16,04,52,15.80
2012,08,16,04,53,15.80
2012,08,16,04,54,15.80
2012,08,16,04,55,15.80
2012,08,16,04,56,15.80
2012,08,16,04,57,15.80
2012,08,16,04,58,15.80
2012,08,16,04,59,15.70
2012,08,16,05,00,15.70
2012,08,16,05,01,15.70
2012,08,16,05,02,15.70
2012,08,16,05,03,15.70
2012,08,16,05,04,15.60
2012,08,16,05,05,15.60
2012,08,16,05,06,15.60
2012,08,16,05,07,15.60
2012,08,16,05,08,15.60
2012,08,16,05,09,15.60
2012,08,16,05,10,15.60
2012,08,16,05,11,15.60
2012,08,16,05,12,15.50
2012,08,16,05,13,15.50
2012,08,16,05,14,15.50
2012,08,16,05,15,15.50
2012,08,16,05,16,15.50
2012,08,16,05,17,15.50
2012,08,16,05,18,15.40
2012,08,16,05,19,15.40
2012,08,16,05,20,15.40
2012,08,16,05,21,15.40
2012,08,16,05,22,15.40
2012,08,16,05,23,15.30
2012,08,16,05,24,15.30
2012,08,16,05,25,15.30
2012,08,16,05,26,15.30
2012,08,16,05,27,15.30
2012,08,16,05,28,15.30
2012,08,16,05,29,15.30
2012,08,16,05,30,15.30
2012,08,16,05,31,15.30
2012,08,16,05,32,15.30
2012,08,16,05,33,15.20
2012,08,16,05,34,15.20
2012,08,16,05,35,15.20
2012,08,16,05,36,15.20
2012,08,16,05,37,15.10
2012,08,16,05,38,15.10
2012,08,16,05,39,15.10
2012,08,16,05,40,15.10
2012,08,16,05,41,15.00
2012,08,16,05,42,15.00
2012,08,16,05,43,15.00
2012,08,16,05,44,15.00
2012,08,16,05,45,15.00
2012,08,16,05,46,15.00
2012,08,16,05,47,14.90
2012,08,16,05,48,14.90
2012,08,16,05,49,14.90
2012,08,16,05,50,14.90
2012,08,16,05,51,14.90
2012,08,16,05,52,14.80
2012,08,16,05,53,14.80
2012,08,16,05,54,14.80
2012,08,16,05,55,14.80
2012,08,16,05,56,14.80
2012,08,16,05,57,14.80
2012,08,16,05,58,14.80
2012,08,16,05,59,14.80
2012,08,16,06,00,14.80
2012,08,16,06,01,14.80
2012,08,16,06,02,14.80
2012,08,16,06,03,14.80
2012,08,16,06,04,14.80
2012,08,16,06,05,14.80
2012,08,16,06,06,14.80
2012,08,16,06,07,14.80
2012,08,16,06,08,14.80
2012,08,16,06,09,14.80
2012,08,16,06,10,14.80
2012,08,16,06,11,14.80
2012,08,16,06,12,14.80
2012,08,16,06,13,14.80
2012,08,16,06,14,14.80
2012,08,16,06,15,14.70
2012,08,16,06,16,14.70
2012,08,16,06,17,14.70
2012,08,16,06,18,14.60
2012,08,16,06,19,14.60
2012,08,16,06,20,14.60
2012,08,16,06,21,14.60
2012,08,16,06,22,14.50
2012,08,16,06,23,14.50
2012,08,16,06,24,14.50
2012,08,16,06,25,14.50
2012,08,16,06,26,14.50
2012,08,16,06,27,14.50
2012,08,16,06,28,14.50
2012,08,16,06,29,14.50
2012,08,16,06,30,14.50
2012,08,16,06,31,14.50
2012,08,16,06,32,14.50
2012,08,16,06,33,14.50
2012,08,16,06,34,14.50
2012,08,16,06,35,14.40
2012,08,16,06,36,14.40
2012,08,16,06,37,14.40
2012,08,16,06,38,14.40
2012,08,16,06,39,14.40
2012,08,16,06,40,14.40
2012,08,16,06,41,14.40
2012,08,16,06,42,14.40
2012,08,16,06,43,14.40
2012,08,16,06,44,14.40
2012,08,16,06,45,14.40
2012,08,16,06,46,14.40
2012,08,16,06,47,14.30
2012,08,16,06,48,14.30
2012,08,16,06,49,14.30
2012,08,16,06,50,14.30
2012,08,16,06,51,14.30
2012,08,16,06,52,14.30
2012,08,16,06,53,14.30
2012,08,16,06,54,14.40
2012,08,16,06,55,14.40
2012,08,16,06,56,14.40
2012,08,16,06,57,14.40
2012,08,16,06,58,14.50
2012,08,16,06,59,14.50
2012,08,16,07,00,14.50
2012,08,16,07,01,14.50
2012,08,16,07,02,14.50
2012,08,16,07,03,14.50
2012,08,16,07,04,14.50
2012,08,16,07,05,14.50
2012,08,16,07,06,14.60
2012,08,16,07,07,14.60
2012,08,16,07,08,14.60
2012,08,16,07,09,14.60
2012,08,16,07,10,14.60
2012,08,16,07,11,14.70
2012,08,16,07,12,14.70
2012,08,16,07,13,14.70
2012,08,16,07,14,14.80
2012,08,16,07,15,14.80
2012,08,16,07,16,14.80
2012,08,16,07,17,14.90
2012,08,16,07,18,15.00
2012,08,16,07,19,15.10
2012,08,16,07,20,15.20
2012,08,16,07,21,15.30
2012,08,16,07,22,15.30
2012,08,16,07,23,15.40
2012,08,16,07,24,15.50
2012,08,16,07,25,15.60
2012,08,16,07,26,15.70
2012,08,16,07,27,15.80
2012,08,16,07,28,15.80
2012,08,16,07,29,15.80
2012,08,16,07,30,15.80
2012,08,16,07,31,15.80
2012,08,16,07,32,15.80
2012,08,16,07,33,15.90
2012,08,16,07,34,15.90
2012,08,16,07,35,15.90
2012,08,16,07,36,15.90
2012,08,16,07,37,15.90
2012,08,16,07,38,16.10
2012,08,16,07,39,16.10
2012,08,16,07,40,16.10
2012,08,16,07,41,16.10
2012,08,16,07,42,16.10
2012,08,16,07,43,16.10
2012,08,16,07,44,16.10
2012,08,16,07,45,16.10
2012,08,16,07,46,16.20
2012,08,16,07,47,16.20
2012,08,16,07,48,16.20
2012,08,16,07,49,16.20
2012,08,16,07,50,16.30
2012,08,16,07,51,16.30
2012,08,16,07,52,16.20
2012,08,16,07,53,16.20
2012,08,16,07,54,16.20
2012,08,16,07,55,16.20
2012,08,16,07,56,16.30
2012,08,16,07,57,16.30
2012,08,16,07,58,16.30
2012,08,16,07,59,16.30
2012,08,16,08,00,16.40
2012,08,16,08,01,16.40
2012,08,16,08,02,16.40
2012,08,16,08,03,16.50
2012,08,16,08,04,16.60
2012,08,16,08,05,16.60
2012,08,16,08,06,16.60
2012,08,16,08,07,16.70
2012,08,16,08,08,16.70
2012,08,16,08,09,16.70
2012,08,16,08,10,16.70
2012,08,16,08,11,16.70
2012,08,16,08,12,16.80
2012,08,16,08,13,16.80
2012,08,16,08,14,16.80
2012,08,16,08,15,16.90
2012,08,16,08,16,16.90
2012,08,16,08,17,17.00
2012,08,16,08,18,17.00
2012,08,16,08,19,17.00
2012,08,16,08,20,17.10
2012,08,16,08,21,17.10
2012,08,16,08,22,17.20
2012,08,16,08,23,17.30
2012,08,16,08,24,17.30
2012,08,16,08,25,17.30
2012,08,16,08,26,17.30
2012,08,16,08,27,17.40
2012,08,16,08,28,17.40
2012,08,16,08,29,17.50
2012,08,16,08,30,17.50
2012,08,16,08,31,17.60
2012,08,16,08,32,17.60
2012,08,16,08,33,17.70
2012,08,16,08,34,17.70
2012,08,16,08,35,17.80
2012,08,16,08,36,17.80
2012,08,16,08,37,17.90
2012,08,16,08,38,17.90
2012,08,16,08,39,17.90
2012,08,16,08,40,17.90
2012,08,16,08,41,17.90
2012,08,16,08,42,17.80
2012,08,16,08,43,17.80
2012,08,16,08,44,17.80
2012,08,16,08,45,17.90
2012,08,16,08,46,17.90
2012,08,16,08,47,17.90
2012,08,16,08,48,17.90
2012,08,16,08,49,17.90
2012,08,16,08,50,17.90
2012,08,16,08,51,18.00
2012,08,16,08,52,18.10
2012,08,16,08,53,18.10
2012,08,16,08,54,18.20
2012,08,16,08,55,18.20
2012,08,16,08,56,18.30
2012,08,16,08,57,18.30
2012,08,16,08,58,18.30
2012,08,16,08,59,18.30
2012,08,16,09,00,18.40
2012,08,16,09,01,18.50
2012,08,16,09,02,18.50
2012,08,16,09,03,18.50
2012,08,16,09,04,18.50
2012,08,16,09,05,18.60
2012,08,16,09,06,18.60
2012,08,16,09,07,18.70
2012,08,16,09,08,18.70
2012,08,16,09,09,18.80
2012,08,16,09,10,18.90
2012,08,16,09,11,19.00
2012,08,16,09,12,19.10
2012,08,16,09,13,19.30
2012,08,16,09,14,19.50
2012,08,16,09,15,19.90
2012,08,16,09,16,20.20
2012,08,16,09,17,20.50
2012,08,16,09,18,20.70
2012,08,16,09,19,20.90
2012,08,16,09,20,21.20
2012,08,16,09,21,21.40
2012,08,16,09,22,21.70
2012,08,16,09,23,21.90
2012,08,16,09,24,22.10
2012,08,16,09,25,22.30
2012,08,16,09,26,22.50
2012,08,16,09,27,22.70
2012,08,16,09,28,22.80
2012,08,16,09,29,22.80
2012,08,16,09,30,22.90
2012,08,16,09,31,23.00
2012,08,16,09,32,23.10
2012,08,16,09,33,23.30
2012,08,16,09,34,23.30
2012,08,16,09,35,23.40
2012,08,16,09,36,23.50
2012,08,16,09,37,23.60
2012,08,16,09,38,23.70
2012,08,16,09,39,23.70
2012,08,16,09,40,23.80
2012,08,16,09,41,23.90
2012,08,16,09,42,24.00
2012,08,16,09,43,24.10
2012,08,16,09,44,24.10
2012,08,16,09,45,24.10
2012,08,16,09,46,24.10
2012,08,16,09,47,24.10
2012,08,16,09,48,24.20
2012,08,16,09,49,24.30
2012,08,16,09,50,24.40
2012,08,16,09,51,24.40
2012,08,16,09,52,24.50
2012,08,16,09,53,24.50
2012,08,16,09,54,24.50
2012,08,16,09,55,24.50
2012,08,16,09,56,24.50
2012,08,16,09,57,24.50
2012,08,16,09,58,24.60
2012,08,16,09,59,24.60
2012,08,16,10,00,24.60
2012,08,16,10,01,24.60
2012,08,16,10,02,24.50
2012,08,16,10,03,24.50
2012,08,16,10,04,24.50
2012,08,16,10,05,24.60
2012,08,16,10,06,24.60
2012,08,16,10,07,24.50
2012,08,16,10,08,24.50
2012,08,16,10,09,24.50
2012,08,16,10,10,24.50
2012,08,16,10,11,24.40
2012,08,16,10,12,24.40
2012,08,16,10,13,24.50
2012,08,16,10,14,24.50
2012,08,16,10,15,24.50
2012,08,16,10,16,24.50
2012,08,16,10,17,24.50
2012,08,16,10,18,24.50
2012,08,16,10,19,24.50
2012,08,16,10,20,24.50
2012,08,16,10,21,24.60
2012,08,16,10,22,24.70
2012,08,16,10,23,24.70
2012,08,16,10,24,24.80
2012,08,16,10,25,24.90
2012,08,16,10,26,24.90
2012,08,16,10,27,24.90
2012,08,16,10,28,24.90
2012,08,16,10,29,24.90
2012,08,16,10,30,24.90
2012,08,16,10,31,24.90
2012,08,16,10,32,25.00
2012,08,16,10,33,25.00
2012,08,16,10,34,25.00
2012,08,16,10,35,25.10
2012,08,16,10,36,25.10
2012,08,16,10,37,25.10
2012,08,16,10,38,25.10
2012,08,16,10,39,25.10
2012,08,16,10,40,25.10
2012,08,16,10,41,25.20
2012,08,16,10,42,25.20
2012,08,16,10,43,25.20
2012,08,16,10,44,25.20
2012,08,16,10,45,25.20
2012,08,16,10,46,25.10
2012,08,16,10,47,25.10
2012,08,16,10,48,25.10
2012,08,16,10,49,25.00
2012,08,16,10,50,25.00
2012,08,16,10,51,25.00
2012,08,16,10,52,25.10
2012,08,16,10,53,25.10
2012,08,16,10,54,25.10
2012,08,16,10,55,25.10
2012,08,16,10,56,25.10
2012,08,16,10,57,25.10
2012,08,16,10,58,25.10
2012,08,16,10,59,25.20
2012,08,16,11,00,25.20
2012,08,16,11,01,25.30
2012,08,16,11,02,25.40
2012,08,16,11,03,25.40
2012,08,16,11,04,25.40
2012,08,16,11,05,25.40
2012,08,16,11,06,25.40
2012,08,16,11,07,25.50
2012,08,16,11,08,25.60
2012,08,16,11,09,25.70
2012,08,16,11,10,25.70
2012,08,16,11,11,25.70
2012,08,16,11,12,25.80
2012,08,16,11,13,25.80
2012,08,16,11,14,25.90
2012,08,16,11,15,25.90
2012,08,16,11,16,25.90
2012,08,16,11,17,25.90
2012,08,16,11,18,26.00
2012,08,16,11,19,26.10
2012,08,16,11,20,26.20
2012,08,16,11,21,26.20
2012,08,16,11,22,26.20
2012,08,16,11,23,26.30
2012,08,16,11,24,26.30
2012,08,16,11,25,26.30
2012,08,16,11,26,26.40
2012,08,16,11,27,26.40
2012,08,16,11,28,26.40
2012,08,16,11,29,26.40
2012,08,16,11,30,26.40
2012,08,16,11,31,26.50
2012,08,16,11,32,26.60
2012,08,16,11,33,26.60
2012,08,16,11,34,26.50
2012,08,16,11,35,26.50
2012,08,16,11,36,26.60
2012,08,16,11,37,26.60
2012,08,16,11,38,26.60
2012,08,16,11,39,26.60
2012,08,16,11,40,26.60
2012,08,16,11,41,26.60
2012,08,16,11,42,26.70
2012,08,16,11,43,26.80
2012,08,16,11,44,26.90
2012,08,16,11,45,26.90
2012,08,16,11,46,26.90
2012,08,16,11,47,27.10
2012,08,16,11,48,27.00
2012,08,16,11,49,26.90
2012,08,16,11,50,26.90
2012,08,16,11,51,26.80
2012,08,16,11,52,26.90
2012,08,16,11,53,26.90
2012,08,16,11,54,27.00
2012,08,16,11,55,27.10
2012,08,16,11,56,27.20
2012,08,16,11,57,27.20
2012,08,16,11,58,27.20
2012,08,16,11,59,27.20
2012,08,16,12,00,27.20
2012,08,16,12,01,27.30
2012,08,16,12,02,27.20
2012,08,16,12,03,27.20
2012,08,16,12,04,27.30
2012,08,16,12,05,27.30
2012,08,16,12,06,27.30
2012,08,16,12,07,27.40
2012,08,16,12,08,27.50
2012,08,16,12,09,27.60
2012,08,16,12,10,27.60
2012,08,16,12,11,27.60
2012,08,16,12,12,27.60
2012,08,16,12,13,27.70
2012,08,16,12,14,27.70
2012,08,16,12,15,27.70
2012,08,16,12,16,27.70
2012,08,16,12,17,27.70
2012,08,16,12,18,27.70
2012,08,16,12,19,27.80
2012,08,16,12,20,27.90
2012,08,16,12,21,28.00
2012,08,16,12,22,27.90
2012,08,16,12,23,27.90
2012,08,16,12,24,27.90
2012,08,16,12,25,28.00
2012,08,16,12,26,28.00
2012,08,16,12,27,28.00
2012,08,16,12,28,28.00
2012,08,16,12,29,28.00
2012,08,16,12,30,28.10
2012,08,16,12,31,28.30
2012,08,16,12,32,28.30
2012,08,16,12,33,28.40
2012,08,16,12,34,28.40
2012,08,16,12,35,28.30
2012,08,16,12,36,28.30
2012,08,16,12,37,28.20
2012,08,16,12,38,28.10
2012,08,16,12,39,28.10
2012,08,16,12,40,28.00
2012,08,16,12,41,28.00
2012,08,16,12,42,28.00
2012,08,16,12,43,28.00
2012,08,16,12,44,28.10
2012,08,16,12,45,28.10
2012,08,16,12,46,28.10
2012,08,16,12,47,28.10
2012,08,16,12,48,28.20
2012,08,16,12,49,28.20
2012,08,16,12,50,28.30
2012,08,16,12,51,28.30
2012,08,16,12,52,28.30
2012,08,16,12,53,28.40
2012,08,16,12,54,28.40
2012,08,16,12,55,28.40
2012,08,16,12,56,28.40
2012,08,16,12,57,28.50
2012,08,16,12,58,28.60
2012,08,16,12,59,28.60
2012,08,16,13,00,28.60
2012,08,16,13,01,28.60
2012,08,16,13,02,28.60
2012,08,16,13,03,28.60
2012,08,16,13,04,28.60
2012,08,16,13,05,28.60
2012,08,16,13,06,28.60
2012,08,16,13,07,28.70
2012,08,16,13,08,28.70
2012,08,16,13,09,28.70
2012,08,16,13,10,28.70
2012,08,16,13,11,28.60
2012,08,16,13,12,28.50
2012,08,16,13,13,28.40
2012,08,16,13,14,28.30
2012,08,16,13,15,28.30
2012,08,16,13,16,28.20
2012,08,16,13,17,28.20
2012,08,16,13,18,28.20
2012,08,16,13,19,28.30
2012,08,16,13,20,28.30
2012,08,16,13,21,28.30
2012,08,16,13,22,28.30
2012,08,16,13,23,28.30
2012,08,16,13,24,28.30
2012,08,16,13,25,28.40
2012,08,16,13,26,28.40
2012,08,16,13,27,28.40
2012,08,16,13,28,28.30
2012,08,16,13,29,28.30
2012,08,16,13,30,28.20
2012,08,16,13,31,28.20
2012,08,16,13,32,28.30
2012,08,16,13,33,28.50
2012,08,16,13,34,28.60
2012,08,16,13,35,28.80
2012,08,16,13,36,28.90
2012,08,16,13,37,29.00
2012,08,16,13,38,29.20
2012,08,16,13,39,29.30
2012,08,16,13,40,29.30
2012,08,16,13,41,29.20
2012,08,16,13,42,29.20
2012,08,16,13,43,29.20
2012,08,16,13,44,29.10
2012,08,16,13,45,29.00
2012,08,16,13,46,28.90
2012,08,16,13,47,28.90
2012,08,16,13,48,29.00
2012,08,16,13,49,29.10
2012,08,16,13,50,29.10
2012,08,16,13,51,29.10
2012,08,16,13,52,29.10
2012,08,16,13,53,29.30
2012,08,16,13,54,29.40
2012,08,16,13,55,29.30
2012,08,16,13,56,29.30
2012,08,16,13,57,29.20
2012,08,16,13,58,29.20
2012,08,16,13,59,29.20
2012,08,16,14,00,29.20
2012,08,16,14,01,29.10
2012,08,16,14,02,29.10
2012,08,16,14,03,29.10
2012,08,16,14,04,29.20
2012,08,16,14,05,29.30
2012,08,16,14,06,29.40
2012,08,16,14,07,29.40
2012,08,16,14,08,29.50
2012,08,16,14,09,29.50
2012,08,16,14,10,29.50
2012,08,16,14,11,29.60
2012,08,16,14,12,29.70
2012,08,16,14,13,29.80
2012,08,16,14,14,29.90
2012,08,16,14,15,29.90
2012,08,16,14,16,30.00
2012,08,16,14,17,30.10
2012,08,16,14,18,30.20
2012,08,16,14,19,30.30
2012,08,16,14,20,30.30
2012,08,16,14,21,30.30
2012,08,16,14,22,30.30
2012,08,16,14,23,30.30
2012,08,16,14,24,30.30
2012,08,16,14,25,30.10
2012,08,16,14,26,29.60
2012,08,16,14,27,28.90
2012,08,16,14,28,28.40
2012,08,16,14,29,28.10
2012,08,16,14,30,27.60
2012,08,16,14,31,27.30
2012,08,16,14,32,26.90
2012,08,16,14,33,26.80
2012,08,16,14,34,26.70
2012,08,16,14,35,26.60
2012,08,16,14,36,26.60
2012,08,16,14,37,26.50
2012,08,16,14,38,26.40
2012,08,16,14,39,26.40
2012,08,16,14,40,26.60
2012,08,16,14,41,26.60
2012,08,16,14,42,26.60
2012,08,16,14,43,26.90
2012,08,16,14,44,27.20
2012,08,16,14,45,27.30
2012,08,16,14,46,27.50
2012,08,16,14,47,27.60
2012,08,16,14,48,27.70
2012,08,16,14,49,27.70
2012,08,16,14,50,27.60
2012,08,16,14,51,27.60
2012,08,16,14,52,27.40
2012,08,16,14,53,27.40
2012,08,16,14,54,27.30
2012,08,16,14,55,27.20
2012,08,16,14,56,27.00
2012,08,16,14,57,26.70
2012,08,16,14,58,26.60
2012,08,16,14,59,26.60
2012,08,16,15,00,26.60
2012,08,16,15,01,26.60
2012,08,16,15,02,26.70
2012,08,16,15,03,26.70
2012,08,16,15,04,26.70
2012,08,16,15,05,26.70
2012,08,16,15,06,26.60
2012,08,16,15,07,26.30
2012,08,16,15,08,26.00
2012,08,16,15,09,25.70
2012,08,16,15,10,25.50
2012,08,16,15,11,25.40
2012,08,16,15,12,25.30
2012,08,16,15,13,25.20
2012,08,16,15,14,25.10
2012,08,16,15,15,24.90
2012,08,16,15,16,24.90
2012,08,16,15,17,24.80
2012,08,16,15,18,24.70
2012,08,16,15,19,24.60
2012,08,16,15,20,24.70
2012,08,16,15,21,24.60
2012,08,16,15,22,24.60
2012,08,16,15,23,24.50
2012,08,16,15,24,24.50
2012,08,16,15,25,24.50
2012,08,16,15,26,24.50
2012,08,16,15,27,24.40
2012,08,16,15,28,24.40
2012,08,16,15,29,24.30
2012,08,16,15,30,24.10
2012,08,16,15,31,24.00
2012,08,16,15,32,23.90
2012,08,16,15,33,23.70
2012,08,16,15,34,23.60
2012,08,16,15,35,23.40
2012,08,16,15,36,23.30
2012,08,16,15,37,23.20
2012,08,16,15,38,23.10
2012,08,16,15,39,23.10
2012,08,16,15,40,23.10
2012,08,16,15,41,23.00
2012,08,16,15,42,22.80
2012,08,16,15,43,22.60
2012,08,16,15,44,22.40
2012,08,16,15,45,22.20
2012,08,16,15,46,22.00
2012,08,16,15,47,21.90
2012,08,16,15,48,21.70
2012,08,16,15,49,21.60
2012,08,16,15,50,21.60
2012,08,16,15,51,21.60
2012,08,16,15,52,21.60
2012,08,16,15,53,21.60
2012,08,16,15,54,21.60
2012,08,16,15,55,21.50
2012,08,16,15,56,21.40
2012,08,16,15,57,21.10
2012,08,16,15,58,21.00
2012,08,16,15,59,20.90
2012,08,16,16,00,20.80
2012,08,16,16,01,20.70
2012,08,16,16,02,20.60
2012,08,16,16,03,20.40
2012,08,16,16,04,20.30
2012,08,16,16,05,20.10
2012,08,16,16,06,20.00
2012,08,16,16,07,19.90
2012,08,16,16,08,19.90
2012,08,16,16,09,19.90
2012,08,16,16,10,19.90
2012,08,16,16,11,19.90
2012,08,16,16,12,20.00
2012,08,16,16,13,20.10
2012,08,16,16,14,20.20
2012,08,16,16,15,20.20
2012,08,16,16,16,20.40
2012,08,16,16,17,20.50
2012,08,16,16,18,20.60
2012,08,16,16,19,20.80
2012,08,16,16,20,20.90
2012,08,16,16,21,21.00
2012,08,16,16,22,21.10
2012,08,16,16,23,21.20
2012,08,16,16,24,21.30
2012,08,16,16,25,21.40
2012,08,16,16,26,21.50
2012,08,16,16,27,21.60
2012,08,16,16,28,21.60
2012,08,16,16,29,21.60
2012,08,16,16,30,21.40
2012,08,16,16,31,21.30
2012,08,16,16,32,21.30
2012,08,16,16,33,21.20
2012,08,16,16,34,21.20
2012,08,16,16,35,21.10
2012,08,16,16,36,21.00
2012,08,16,16,37,21.00
2012,08,16,16,38,21.00
2012,08,16,16,39,21.00
2012,08,16,16,40,20.90
2012,08,16,16,41,20.90
2012,08,16,16,42,20.90
2012,08,16,16,43,20.90
2012,08,16,16,44,21.00
2012,08,16,16,45,21.10
2012,08,16,16,46,21.10
2012,08,16,16,47,21.10
2012,08,16,16,48,21.10
2012,08,16,16,49,21.10
2012,08,16,16,50,21.00
2012,08,16,16,51,21.00
2012,08,16,16,52,21.00
2012,08,16,16,53,21.00
2012,08,16,16,54,21.10
2012,08,16,16,55,21.20
2012,08,16,16,56,21.30
2012,08,16,16,57,21.30
2012,08,16,16,58,21.30
2012,08,16,16,59,21.30
2012,08,16,17,00,21.40
2012,08,16,17,01,21.40
2012,08,16,17,02,21.40
2012,08,16,17,03,21.40
2012,08,16,17,04,21.30
2012,08,16,17,05,21.30
2012,08,16,17,06,21.20
2012,08,16,17,07,21.20
2012,08,16,17,08,21.20
2012,08,16,17,09,21.20
2012,08,16,17,10,21.10
2012,08,16,17,11,21.00
2012,08,16,17,12,21.00
2012,08,16,17,13,20.90
2012,08,16,17,14,20.90
2012,08,16,17,15,21.00
2012,08,16,17,16,21.00
2012,08,16,17,17,21.00
2012,08,16,17,18,21.10
2012,08,16,17,19,21.20